Ireland West Airport Knock, Ireland

6:50 AM IST on October 18, 2017 (GMT +0100)
Connaught

Weather History for EIKN - May, 2013

Change the Weather History Date:

Saturday, May 18, 2013

  Actual Average Record
Temperature  
Mean Temperature 44 °F -  
Max Temperature 46 °F - - ()
Min Temperature 41 °F - - ()
Degree Days  
Heating Degree Days 22    
Moisture  
Dew Point 44 °F    
Average Humidity 97    
Maximum Humidity 100    
Minimum Humidity 87    
Precipitation  
Precipitation 0.39 in - - ()
Sea Level Pressure  
Sea Level Pressure 29.88 in    
Wind  
Wind Speed 13 mph ()    
Max Wind Speed 20 mph    
Max Gust Speed 32 mph    
Visibility 5.9 miles    
Events Rain    
T = Trace of Precipitation, MM = Missing Value Source: Averaged Metar Reports

Daily Weather History Graph

Daily Weather History Graph

Search for Another Location

Airport or City:

Trip Planner

Search our weather history database for the weather conditions in past years. The results will help you decide how hot, cold, wet, or windy it might be!

Date:

Astronomy

May. 18, 2013 Rise Set
Actual Time 5:28 AM IST 9:36 PM IST
Civil Twilight 4:41 AM IST 10:23 PM IST
Nautical Twilight 3:33 AM IST 11:32 PM IST
Astronomical Twilight 2:04 AM IST 12:59 AM IST
Moon 1:22 PM IST 2:20 AM IST
Length of Visible Light 17h 41m
Length of Day
16h 08m
First Quarter, 53% of the Moon is Illuminated
May 18
First Quarter
May 25
Full
May 31
Last Quarter
Jun 8
New
Jun 16
First Quarter

Hourly Weather History & Observations

Time (IST) Temp. Windchill Dew Point Humidity Pressure Visibility Wind Dir Wind Speed Gust Speed Precip Events Conditions
1:00 AM 42 °F - 40 °F 88% 30.02 in - NNW 6.7 mph - -  
6:30 AM 44.6 °F 37.8 °F 42.8 °F 93% 29.92 in 6.2 mi NNW 15.0 mph - N/A   Mostly Cloudy
7:00 AM 45 °F - 42 °F 87% 29.96 in 19 mi NNW 13.4 mph - -   Partly Cloudy
7:00 AM 44.6 °F 38.1 °F 42.8 °F 93% 29.95 in 6.2 mi NNW 13.8 mph - N/A   Mostly Cloudy
7:30 AM 44.6 °F 38.8 °F 42.8 °F 93% 29.92 in 6.2 mi NNW 11.5 mph - N/A   Mostly Cloudy
8:00 AM 46.4 °F 40.4 °F 42.8 °F 87% 29.92 in 6.2 mi NNW 13.8 mph - N/A   Mostly Cloudy
8:30 AM 44.6 °F 38.1 °F 44.6 °F 100% 29.92 in 6.2 mi NNW 13.8 mph - N/A   Mostly Cloudy
9:00 AM 44.6 °F 39.2 °F 44.6 °F 100% 29.92 in 6.2 mi NNW 10.4 mph - N/A Rain Light Rain
9:30 AM 46.4 °F 41.1 °F 44.6 °F 93% 29.92 in 6.2 mi North 11.5 mph - N/A   Mostly Cloudy
10:00 AM 44.6 °F 37.8 °F 44.6 °F 100% 29.92 in 6.2 mi North 15.0 mph - N/A Rain Light Rain
10:30 AM 44.6 °F 37.2 °F 44.6 °F 100% 29.92 in 6.2 mi NNW 17.3 mph - N/A Rain Light Rain
11:00 AM 44.6 °F 37.2 °F 44.6 °F 100% 29.92 in 6.2 mi NNW 17.3 mph - N/A Rain Light Rain
11:30 AM 44.6 °F 36.9 °F 44.6 °F 100% 29.89 in 6.2 mi NNW 18.4 mph - N/A Rain Light Rain
12:00 PM 46.4 °F 39.2 °F 44.6 °F 93% 29.89 in 6.2 mi NNW 18.4 mph - N/A Rain Light Rain
12:30 PM 44.6 °F 36.9 °F 44.6 °F 100% 29.89 in 5.6 mi NNW 18.4 mph - N/A Rain Light Rain
1:00 PM 45 °F - 45 °F 98% 29.90 in 6 mi NNW 17.9 mph - - Rain Light Rain
1:00 PM 44.6 °F 36.9 °F 44.6 °F 100% 29.86 in 5.6 mi NNW 18.4 mph - N/A Rain Light Rain
1:30 PM 44.6 °F 37.2 °F 44.6 °F 100% 29.86 in 3.7 mi NNW 17.3 mph - N/A Rain Light Rain
2:00 PM 44.6 °F 36.9 °F 44.6 °F 100% 29.86 in 3.7 mi NNW 18.4 mph 32.2 mph N/A Rain Light Rain
2:30 PM 46.4 °F 39.5 °F 44.6 °F 93% 29.83 in 5.0 mi NNW 17.3 mph 32.2 mph N/A Rain Light Rain
3:00 PM 46.4 °F 39.0 °F 44.6 °F 93% 29.83 in 5.6 mi NNW 19.6 mph - N/A Rain Light Rain
3:30 PM 46.4 °F 39.2 °F 44.6 °F 93% 29.83 in 3.7 mi NNW 18.4 mph - N/A Rain Light Rain
4:00 PM 46.4 °F 39.8 °F 46.4 °F 100% 29.80 in 4.3 mi NNW 16.1 mph - N/A Rain Light Rain
4:30 PM 46.4 °F 40.4 °F 46.4 °F 100% 29.80 in 4.3 mi NNW 13.8 mph - N/A Rain Light Rain
5:00 PM 46.4 °F 40.7 °F 46.4 °F 100% 29.80 in 3.7 mi NNW 12.7 mph - N/A Rain Rain
5:30 PM 46.4 °F 41.5 °F 46.4 °F 100% 29.77 in 4.3 mi NW 10.4 mph - N/A Rain Rain
6:00 PM 46.4 °F 40.4 °F 46.4 °F 100% 29.77 in 4.3 mi NNW 13.8 mph - N/A Rain Light Rain
7:00 PM 46 °F - 46 °F 100% 29.77 in 7 mi NW 11.2 mph - - Rain Light Rain